User: anonymous   Login
Location: Unspecified
(22.6800°N, 112.2000°E)
Time: 17:43:07
(UTC+08:00)
Language:

Vanguard 1 Rocket - Orbit

View from above orbital plane
View from above orbital plane
View from above satellite
View from above satellite

Ground track
Ground track

The orbit data is extracted from the following two-line orbital elements,

1 00016U 58002A   21214.80710865  .00000213  00000-0  28428-3 0  9990
2 00016  34.2672  47.0160 2027922 172.1123 191.7129 10.48744710502027
Epoch (UTC): 02 August 2021 19:22:14
Eccentricity: 0.2027922
inclination: 34.2672°
perigee height: 650 km
apogee height: 4226 km
right ascension of ascending node: 47.0160°
argument of perigee: 172.1123°
revolutions per day: 10.48744710
mean anomaly at epoch: 191.7129°
orbit number at epoch: 50202

The dashed part of the orbit path shows where the satellite is in the earth's shadow,  

DLR